User: anonymous   Login
Location: Unspecified
(0.0000°N, 0.0000°E)
Time: 05:17:42
(UTC+00:00)
Language:

PICSAT - Orbit

View from above orbital plane
View from above orbital plane
View from above satellite
View from above satellite

Ground track
Ground track

The orbit data is extracted from the following two-line orbital elements,

1 43132U 18004X   19083.72515372  .00001027  00000-0  46263-4 0  9994
2 43132  97.4970 151.6853 0009633 186.6443 173.4668 15.23324366 66410
Epoch (UTC): 24 March 2019 17:24:13
Eccentricity: 0.0009633
inclination: 97.4970°
perigee height: 489 km
apogee height: 502 km
right ascension of ascending node: 151.6853°
argument of perigee: 186.6443°
revolutions per day: 15.23324366
mean anomaly at epoch: 173.4668°
orbit number at epoch: 6641

The dashed part of the orbit path shows where the satellite is in the earth's shadow,  

DLR